FW6463 Weather Reports


Display with metric or nautical units.
time (UTC)temp
F
wind
direction
speed
MPH
gust
MPH
rain 1hr
in
rain 24hr
in
rain mn
in
humidity
%
barometer
mb
20260902154520 74 260 4.0 4.0 0.00 0.00 0.00 99 1024.3
20260902153524 77 295 5.0 8.0 0.00 0.00 0.00 99 1023.4
20260902152529 79 90 2.0 3.0 0.00 0.00 0.00 96 1022.9
20260902151516 80 303 2.0 4.0 0.00 0.00 0.00 94 1022.6
20260902150521 80 2.0 2.0 0.00 0.00 0.00 93 1022.5
20260902145526 80 3.0 4.0 0.00 0.00 0.00 92 1022.2
20260902144530 80 332 2.0 3.0 0.00 0.00 0.00 92 1022.2
20260902143518 79 167 2.0 3.0 0.00 0.00 0.00 93 1022.2
20260902142543 79 177 2.0 3.0 0.00 0.00 0.00 93 1022.4
20260902141527 79 90 2.0 3.0 0.00 0.00 0.00 93 1022.2
20260902140532 78 200 1.0 2.0 0.00 0.00 0.00 95 1022.2
20260902135519 78 265 2.0 3.0 0.00 0.00 0.00 94 1022.2
20260902134524 78 134 2.0 3.0 0.00 0.00 0.00 95 1022.0
20260902133529 77 248 0.0 2.0 0.00 0.00 0.00 96 1022.2
20260902132517 76 225 1.0 2.0 0.00 0.00 0.00 97 1022.3
20260902131521 76 217 1.0 2.0 0.00 0.00 0.00 99 1022.4
20260902130526 75 299 1.0 2.0 0.00 0.00 0.00 99 1022.4
20260902125531 74 265 2.0 2.0 0.00 0.00 0.00 99 1022.2
20260902124538 72 0.0 0.0 0.00 0.00 0.00 99 1022.0
20260902123523 71 0.0 0.0 0.00 0.00 0.00 99 1021.9
20260902122528 70 0.0 0.0 0.00 0.00 0.00 99 1021.9
20260902121533 69 0.0 0.0 0.00 0.00 0.00 99 1021.9
20260902120520 69 0.0 0.0 0.00 0.00 0.00 99 1021.9
20260902115525 69 0.0 0.0 0.00 0.00 0.00 99 1021.8
20260902114530 68 0.0 0.0 0.00 0.00 0.00 99 1021.7
20260902113516 68 0.0 0.0 0.00 0.00 0.00 99 1021.7
20260902112521 68 0.0 0.0 0.00 0.00 0.00 99 1021.6
20260902111606 68 0.0 0.0 0.00 0.00 0.00 99 1021.5
20260902110531 68 0.0 0.0 0.00 0.00 0.00 99 1021.5
20260902105518 68 0.0 0.0 0.00 0.00 0.00 99 1021.5
20260902104523 68 0.0 0.0 0.00 0.00 0.00 99 1021.7
20260902103528 68 277 0.0 2.0 0.00 0.00 0.00 99 1021.7
20260902102554 68 0.0 0.0 0.00 0.00 0.00 99 1021.8
20260902101520 68 0.0 0.0 0.00 0.00 0.00 99 1021.9
20260902100525 68 0.0 0.0 0.00 0.00 0.00 99 1021.9
20260902095530 68 0.0 0.0 0.00 0.00 0.00 99 1021.7
20260902094517 68 0.0 0.0 0.00 0.00 0.00 99 1021.4
20260902093521 69 0.0 0.0 0.00 0.00 0.00 99 1021.5
20260902092527 69 0.0 1.0 0.00 0.00 0.00 99 1021.5
20260902091531 68 268 0.0 2.0 0.00 0.00 0.00 99 1021.5
20260902090539 68 0.0 0.0 0.00 0.00 0.00 99 1021.5
20260902085523 68 0.0 0.0 0.00 0.00 0.00 99 1021.4
20260902084529 68 0.0 0.0 0.00 0.00 0.00 99 1021.1
20260902083516 68 0.0 0.0 0.00 0.00 0.00 99 1021.1
20260902082521 68 0.0 0.0 0.00 0.00 0.00 99 1020.9
20260902081526 69 0.0 0.0 0.00 0.00 0.00 99 1020.9
20260902080531 69 172 1.0 3.0 0.00 0.00 0.00 99 1020.9
20260902075538 69 0.0 0.0 0.00 0.00 0.00 99 1021.0
20260902074522 69 0.0 0.0 0.00 0.00 0.00 99 1020.9
20260902073528 69 0.0 0.0 0.00 0.00 0.00 99 1020.7
20260902072533 69 0.0 0.0 0.00 0.00 0.00 99 1020.8
20260902071519 69 178 1.0 3.0 0.00 0.00 0.00 99 1020.8
20260902070524 69 186 1.0 2.0 0.00 0.00 0.00 99 1020.8
20260902065529 69 0.0 0.0 0.00 0.00 0.00 99 1020.9
20260902064516 69 0.0 0.0 0.00 0.00 0.00 99 1020.9
20260902063521 69 0.0 0.0 0.00 0.00 0.00 99 1021.1
20260902062526 70 113 0.0 2.0 0.00 0.00 0.00 99 1021.1
20260902061531 70 173 1.0 2.0 0.00 0.00 0.00 99 1021.1
20260902060519 70 180 0.0 1.0 0.00 0.00 0.00 99 1021.0
20260902055523 70 0.0 0.0 0.00 0.00 0.00 99 1021.2
20260902054528 70 225 0.0 2.0 0.00 0.00 0.00 99 1021.2
20260902053553 71 180 0.0 2.0 0.00 0.00 0.00 99 1021.5
20260902052519 71 124 0.0 2.0 0.00 0.00 0.00 99 1021.5
20260902051525 71 0.0 0.0 0.00 0.00 0.00 99 1021.5
20260902050529 72 0.0 0.0 0.00 0.00 0.00 99 1021.5
20260902045517 72 23 1.0 2.0 0.00 0.00 0.00 99 1021.3
20260902044522 72 291 2.0 4.0 0.00 0.00 0.00 99 1021.2
20260902043526 72 293 2.0 3.0 0.00 0.00 0.00 99 1021.1
20260902042531 73 315 1.0 3.0 0.00 0.00 0.00 99 1021.3
20260902041518 73 0.0 0.0 0.00 0.00 0.00 98 1021.4
20260902040523 74 191 0.0 2.0 0.00 0.00 0.00 97 1021.4
20260902035528 74 230 2.0 5.0 0.00 0.00 0.00 96 1021.3
20260902034533 75 132 3.0 5.0 0.00 0.00 0.00 96 1021.7
20260902033520 76 157 3.0 4.0 0.00 0.00 0.00 94 1021.7
20260902032524 76 164 4.0 7.0 0.00 0.00 0.00 93 1021.7
20260902031530 77 107 5.0 10.0 0.00 0.00 0.00 92 1021.3
20260902030516 77 43 5.0 9.0 0.00 0.00 0.00 92 1020.9
20260902025522 78 313 3.0 6.0 0.00 0.00 0.00 92 1020.3
20260902024527 78 214 2.0 4.0 0.00 0.00 0.00 94 1020.0
20260902023525 77 330 1.0 3.0 0.00 0.00 0.00 98 1019.1
20260902022538 78 0.0 0.0 0.00 0.00 0.00 96 1019.0
20260902021543 79 180 0.0 1.0 0.00 0.00 0.00 95 1019.0
20260902020522 79 170 1.0 3.0 0.00 0.00 0.00 92 1019.1
20260902015515 79 180 2.0 3.0 0.00 0.00 0.00 94 1019.2
20260902014520 79 0.0 1.0 0.00 0.00 0.00 95 1019.1
20260902013539 79 180 1.0 3.0 0.00 0.00 0.00 96 1019.1
20260902012538 79 180 1.0 2.0 0.00 0.00 0.00 98 1019.1
20260902011537 79 0.0 0.0 0.00 0.00 0.00 98 1019.2
20260902010516 79 184 1.0 2.0 0.00 0.00 0.00 97 1019.2
20260902005526 80 0.0 0.0 0.00 0.00 0.00 94 1018.8
20260902004532 80 153 1.0 2.0 0.00 0.00 0.00 94 1018.3
20260902003539 81 165 1.0 2.0 0.00 0.00 0.00 91 1017.9
20260902002523 80 180 1.0 2.0 0.00 0.00 0.00 94 1017.8
20260902001528 81 0.0 0.0 0.00 0.00 0.00 93 1017.8
20260902000516 81 0.0 0.0 0.00 0.00 0.00 91 1017.8
20260901235520 82 0.0 0.0 0.00 0.00 0.00 90 1017.6
20260901234525 84 0.0 0.0 0.00 0.00 0.00 88 1017.4
20260901233530 85 180 1.0 3.0 0.00 0.00 0.00 83 1017.6
20260901232517 86 185 1.0 2.0 0.00 0.00 0.00 83 1017.6
20260901231522 89 0.0 0.0 0.00 0.00 0.00 78 1017.6
20260901230527 90 0.0 0.0 0.00 0.00 0.00 75 1017.6
20260901225532 90 244 3.0 6.0 0.00 0.00 0.00 73 1017.6
20260901224559 91 242 3.0 5.0 0.00 0.00 0.00 72 1017.6
20260901223544 92 258 4.0 7.0 0.00 0.00 0.00 70 1017.6
20260901222529 94 241 4.0 6.0 0.00 0.00 0.00 70 1017.6
20260901221515 94 231 4.0 5.0 0.00 0.00 0.00 69 1017.6
20260901220540 93 237 3.0 5.0 0.00 0.00 0.00 71 1017.6
20260901215525 93 250 3.0 5.0 0.00 0.00 0.00 71 1017.8
20260901214611 91 279 4.0 5.0 0.00 0.00 0.00 73 1017.6
20260901213518 91 269 3.0 6.0 0.00 0.00 0.00 72 1017.6
20260901212522 91 254 4.0 6.0 0.00 0.00 0.00 72 1017.7
20260901211527 93 263 3.0 5.0 0.00 0.00 0.00 71 1017.8
20260901210532 94 226 5.0 7.0 0.00 0.00 0.00 69 1017.8
20260901205519 95 257 7.0 8.0 0.00 0.00 0.00 67 1017.8
20260901204524 95 270 4.0 5.0 0.00 0.00 0.00 67 1017.8
20260901203529 96 280 5.0 7.0 0.00 0.00 0.00 65 1017.6
20260901202516 96 253 5.0 10.0 0.00 0.00 0.00 66 1017.8
20260901201521 95 253 6.0 8.0 0.00 0.00 0.00 67 1017.8
20260901200525 96 240 6.0 9.0 0.00 0.00 0.00 66 1017.8
20260901195551 95 252 4.0 6.0 0.00 0.00 0.00 68 1018.1
20260901194517 95 255 5.0 7.0 0.00 0.00 0.00 68 1018.1
20260901193523 94 247 5.0 8.0 0.00 0.00 0.00 70 1018.1
20260901192528 94 242 5.0 8.0 0.00 0.00 0.00 70 1018.2
20260901191533 94 259 7.0 11.0 0.00 0.00 0.00 71 1018.3
20260901190519 93 232 4.0 7.0 0.00 0.00 0.00 74 1018.3
20260901185524 91 249 6.0 7.0 0.00 0.00 0.00 75 1018.8
20260901184529 92 266 5.0 8.0 0.00 0.00 0.00 77 1018.8
20260901183536 92 226 4.0 6.0 0.00 0.00 0.00 76 1018.8
20260901182521 92 256 7.0 9.0 0.00 0.00 0.00 77 1018.8
20260901181525 92 219 6.0 10.0 0.00 0.00 0.00 76 1018.9
20260901180531 92 253 5.0 8.0 0.00 0.00 0.00 76 1019.1
20260901175517 91 257 6.0 9.0 0.00 0.00 0.00 78 1019.4
20260901174522 90 247 5.0 10.0 0.00 0.00 0.00 79 1019.2
20260901173527 90 235 6.0 9.0 0.00 0.00 0.00 80 1019.2
20260901172526 90 247 7.0 11.0 0.00 0.00 0.00 78 1019.1
20260901171519 89 221 6.0 11.0 0.00 0.00 0.00 80 1019.1
20260901170524 89 259 6.0 10.0 0.00 0.00 0.00 79 1019.1
20260901165523 89 238 5.0 8.0 0.00 0.00 0.00 81 1019.3
20260901164516 88 254 5.0 9.0 0.00 0.00 0.00 83 1019.4
20260901163540 88 255 5.0 9.0 0.00 0.00 0.00 85 1019.5
20260901162521 86 190 6.0 11.0 0.00 0.00 0.00 86 1019.6
20260901161519 86 261 6.0 11.0 0.00 0.00 0.00 86 1019.7
20260901160517 84 204 5.0 9.0 0.00 0.00 0.00 88 1019.7
20260901155556 84 6.0 6.0 0.00 0.00 0.00 88 1019.8